User: anonymous   Login
Location: Bergnershof
(48.9468°N, 10.9431°E)
Time: 21:51:32
(UTC+00:00)
Language:

Cosmos 864 Rocket - Orbit

View from above orbital plane
View from above orbital plane
View from above satellite
View from above satellite

Ground track
Ground track

The orbit data is extracted from the following two-line orbital elements,

1 09510U 76108B   21134.69642324  .00000058  00000-0  42591-4 0  9992
2 09510  82.9403  42.3486 0026767 142.8821 217.4194 13.77596002238016
Epoch (UTC): 14 May 2021 16:42:50
Eccentricity: 0.0026767
inclination: 82.9403°
perigee height: 953 km
apogee height: 992 km
right ascension of ascending node: 42.3486°
argument of perigee: 142.8821°
revolutions per day: 13.77596002
mean anomaly at epoch: 217.4194°
orbit number at epoch: 23801

The dashed part of the orbit path shows where the satellite is in the earth's shadow,  

DLR